Date String (YYYY-MM-DD hh:mm:ss) UTC,Instrument flags,absolute air pressure of the measurement (hPa),sample flow rate (lpm),inlet stack bypass flow (lpm),air temperature of the measurement (°C),ambient temperature measured by the external sensor (°C),aerosol sample conditioner tube jacket temperature (°C),OPC LED temperature (°C),internal box temperature (°C),relative humidity of the measurement (%),span deviation,mass concentration of particles derived from Lorenz-Mie calculation of OPC scattering (μg/m³),mass concentration of particles derived from Lorenz-Mie calculation of OPC scattering (μg/m³),mass concentration of particles derived from Lorenz-Mie calculation of OPC scattering (μg/m³)
DateTimeUTC,F1_M11,P_M11,Q1_M11,Q2_M11,T1_M11,T2_M11,T3_M11,T4_M11,T5_M11,U1_M11,ZSPAN_M11,X2_M11,X0_M11,X1_M11
2024-05-01 15:00:00,SystemResetWarning,0823.0,5.00,000.00,025.0,024.3,000.0,033.5,026.9,015.8,0000.0,0003.91,0011.83,0002.54
2024-05-01 15:01:00,SystemResetWarning,0823.0,5.01,000.00,025.0,024.3,000.0,033.5,026.9,015.9,0000.0,0003.90,0011.88,0002.55
2024-05-01 15:02:00,SystemResetWarning,0823.0,4.99,000.00,025.1,024.3,000.0,033.5,026.9,016.1,0000.0,0003.89,0011.93,0002.55
2024-05-01 15:03:00,SystemResetWarning,0822.9,4.99,000.00,025.1,024.4,000.0,033.5,026.9,015.1,0000.0,0003.83,0011.81,0002.51
2024-05-01 15:04:00,SystemResetWarning,0823.0,4.99,000.00,025.1,024.3,000.0,033.5,026.9,015.4,0000.0,0003.81,0011.67,0002.51
2024-05-01 15:05:00,SystemResetWarning,0823.0,5.00,000.00,025.1,024.4,000.0,033.5,026.9,015.5,0000.0,0003.82,0010.93,0002.50
2024-05-01 15:06:00,SystemResetWarning,0823.0,5.01,000.00,025.1,024.4,000.0,033.5,026.9,015.5,0000.0,0003.81,0010.52,0002.47
2024-05-01 15:07:00,SystemResetWarning,0822.9,5.01,000.00,025.1,024.4,000.0,033.5,026.9,015.3,0000.0,0003.85,0009.72,0002.46
2024-05-01 15:08:00,SystemResetWarning,0822.9,4.99,000.00,025.1,024.4,000.0,033.5,026.9,015.4,0000.0,0003.86,0010.09,0002.47
2024-05-01 15:09:00,SystemResetWarning,0822.9,4.99,000.00,025.1,024.4,000.0,033.5,027.0,015.9,0000.0,0003.84,0010.58,0002.45
2024-05-01 15:10:00,SystemResetWarning,0823.1,4.99,000.00,025.1,024.4,000.0,033.5,027.0,016.0,0000.0,0003.83,0011.08,0002.44
2024-05-01 15:11:00,SystemResetWarning,0823.0,5.01,000.00,025.1,024.4,000.0,033.5,027.0,015.9,0000.0,0003.82,0011.02,0002.44
2024-05-01 15:12:00,SystemResetWarning,0822.8,5.01,000.00,025.1,024.5,000.0,033.6,027.0,015.8,0000.0,0003.82,0010.82,0002.44
2024-05-01 15:13:00,SystemResetWarning,0822.7,4.99,000.00,025.1,024.5,000.0,033.6,027.0,015.7,0000.0,0003.82,0010.94,0002.44
2024-05-01 15:14:00,SystemResetWarning,0822.6,4.99,000.00,025.1,024.5,000.0,033.6,027.0,015.6,0000.0,0003.93,0011.32,0002.48
2024-05-01 15:15:00,SystemResetWarning,0822.7,4.99,000.00,025.2,024.5,000.0,033.6,027.0,014.5,0000.0,0003.98,0011.52,0002.48
2024-05-01 15:16:00,SystemResetWarning,0822.7,5.01,000.00,025.2,024.5,000.0,033.6,027.0,014.2,0000.0,0004.00,0011.98,0002.49
2024-05-01 15:17:00,SystemResetWarning,0822.8,5.01,000.00,025.2,024.5,000.0,033.6,027.0,014.3,0000.0,0004.08,0012.43,0002.49
2024-05-01 15:18:00,SystemResetWarning,0822.8,4.97,000.00,025.2,024.5,000.0,033.6,027.0,014.3,0000.0,0004.06,0012.92,0002.48
2024-05-01 15:19:00,SystemResetWarning,0822.8,5.01,000.00,025.2,024.5,000.0,033.6,027.0,014.6,0000.0,0004.08,0012.96,0002.48
2024-05-01 15:20:00,SystemResetWarning,0822.7,5.01,000.00,025.2,024.6,000.0,033.6,027.0,014.7,0000.0,0004.11,0012.70,0002.50
2024-05-01 15:21:00,SystemResetWarning,0822.6,5.00,000.00,025.2,024.6,000.0,033.6,027.1,014.5,0000.0,0004.15,0012.24,0002.52
2024-05-01 15:22:00,SystemResetWarning,0822.8,4.99,000.00,025.2,024.6,000.0,033.6,027.1,015.0,0000.0,0004.13,0011.78,0002.52
2024-05-01 15:23:00,SystemResetWarning,0823.0,4.99,000.00,025.2,024.6,000.0,033.6,027.1,015.3,0000.0,0004.17,0012.52,0002.53
2024-05-01 15:24:00,SystemResetWarning,0822.9,5.00,000.00,025.2,024.6,000.0,033.6,027.1,015.4,0000.0,0004.22,0012.58,0002.53
2024-05-01 15:25:00,SystemResetWarning,0822.8,5.01,000.00,025.3,024.6,000.0,033.7,027.1,014.4,0000.0,0004.19,0012.61,0002.52
2024-05-01 15:26:00,SystemResetWarning,0823.1,5.00,000.00,025.3,024.6,000.0,033.7,027.1,014.6,0000.0,0004.18,0013.38,0002.52
2024-05-01 15:27:00,SystemResetWarning,0823.0,5.00,000.00,025.3,024.6,000.0,033.7,027.1,014.3,0000.0,0004.18,0013.81,0002.51
2024-05-01 15:28:00,SystemResetWarning,0822.8,5.00,000.00,025.3,024.6,000.0,033.7,027.1,013.9,0000.0,0004.10,0012.91,0002.51
2024-05-01 15:29:00,SystemResetWarning,0822.4,5.00,000.00,025.3,024.7,000.0,033.7,027.1,014.1,0000.0,0004.06,0012.11,0002.52
2024-05-01 15:30:00,SystemResetWarning,0822.4,5.00,000.00,025.3,024.7,000.0,033.7,027.1,013.9,0000.0,0004.04,0011.64,0002.51
2024-05-01 15:31:00,SystemResetWarning,0822.4,5.00,000.00,025.3,024.7,000.0,033.7,027.2,014.0,0000.0,0004.02,0011.49,0002.51
2024-05-01 15:32:00,SystemResetWarning,0822.4,5.00,000.00,025.3,024.7,000.0,033.7,027.2,014.3,0000.0,0003.98,0011.42,0002.48
2024-05-01 15:33:00,SystemResetWarning,0822.4,4.99,000.00,025.3,024.7,000.0,033.7,027.2,014.1,0000.0,0004.00,0011.50,0002.47
2024-05-01 15:34:00,SystemResetWarning,0822.4,5.00,000.00,025.3,024.7,000.0,033.7,027.2,014.2,0000.0,0003.99,0010.80,0002.47
2024-05-01 15:35:00,SystemResetWarning,0822.4,5.01,000.00,025.4,024.7,000.0,033.7,027.2,014.7,0000.0,0003.99,0011.63,0002.46
2024-05-01 15:36:00,SystemResetWarning,0822.4,5.00,000.00,025.4,024.7,000.0,033.8,027.2,014.6,0000.0,0003.99,0012.41,0002.45
2024-05-01 15:37:00,SystemResetWarning,0822.5,4.98,000.00,025.4,024.7,000.0,033.8,027.2,014.7,0000.0,0003.95,0011.56,0002.44
2024-05-01 15:38:00,SystemResetWarning,0822.4,5.01,000.00,025.4,024.7,000.0,033.8,027.2,014.3,0000.0,0003.97,0010.96,0002.45
2024-05-01 15:39:00,SystemResetWarning,0822.4,5.01,000.00,025.4,024.7,000.0,033.8,027.2,014.1,0000.0,0003.99,0011.20,0002.46
2024-05-01 15:40:00,SystemResetWarning,0822.3,5.01,000.00,025.4,024.7,000.0,033.8,027.2,014.4,0000.0,0004.02,0011.57,0002.48
2024-05-01 15:41:00,SystemResetWarning,0822.3,5.00,000.00,025.4,024.7,000.0,033.8,027.2,014.5,0000.0,0004.00,0011.49,0002.47
2024-05-01 15:42:00,SystemResetWarning,0822.2,4.99,000.00,025.4,024.7,000.0,033.8,027.2,014.9,0000.0,0004.01,0011.56,0002.46
2024-05-01 15:43:00,SystemResetWarning,0822.2,5.00,000.00,025.4,024.7,000.0,033.8,027.2,015.0,0000.0,0004.03,0011.68,0002.47
2024-05-01 15:44:00,SystemResetWarning,0822.1,5.00,000.00,025.4,024.7,000.0,033.8,027.2,015.1,0000.0,0004.04,0011.62,0002.50
2024-05-01 15:45:00,SystemResetWarning,0822.1,5.00,000.00,025.4,024.8,000.0,033.8,027.3,014.0,0000.0,0004.03,0011.66,0002.51
2024-05-01 15:46:00,SystemResetWarning,0822.1,5.00,000.00,025.5,024.8,000.0,033.9,027.3,014.4,0000.0,0004.01,0011.48,0002.51
2024-05-01 15:47:00,SystemResetWarning,0822.1,5.01,000.00,025.5,024.8,000.0,033.9,027.3,014.0,0000.0,0003.97,0010.85,0002.53
2024-05-01 15:48:00,SystemResetWarning,0822.1,5.00,000.00,025.5,024.8,000.0,033.9,027.3,014.0,0000.0,0004.00,0010.91,0002.54
2024-05-01 15:49:00,SystemResetWarning,0822.0,5.01,000.00,025.5,024.8,000.0,033.9,027.3,014.2,0000.0,0003.99,0010.87,0002.56
2024-05-01 15:50:00,SystemResetWarning,0822.1,4.99,000.00,025.5,024.8,000.0,033.9,027.3,014.6,0000.0,0003.96,0011.29,0002.54
2024-05-01 15:51:00,SystemResetWarning,0822.1,4.99,000.00,025.5,024.9,000.0,033.9,027.3,014.2,0000.0,0003.94,0011.52,0002.53
2024-05-01 15:52:00,SystemResetWarning,0822.1,4.99,000.00,025.5,024.9,000.0,033.9,027.4,014.2,0000.0,0003.96,0013.42,0002.54
2024-05-01 15:53:00,SystemResetWarning,0822.1,5.01,000.00,025.5,024.9,000.0,033.9,027.4,014.1,0000.0,0004.00,0013.96,0002.57
2024-05-01 15:54:00,SystemResetWarning,0822.2,5.01,000.00,025.5,024.9,000.0,033.9,027.4,014.6,0000.0,0004.00,0014.02,0002.59
2024-05-01 15:55:00,SystemResetWarning,0822.1,5.01,000.00,025.6,024.9,000.0,033.9,027.4,015.0,0000.0,0004.03,0015.20,0002.59
2024-05-01 15:56:00,SystemResetWarning,0822.1,4.98,000.00,025.6,025.0,000.0,033.9,027.4,015.0,0000.0,0004.02,0015.23,0002.58
2024-05-01 15:57:00,SystemResetWarning,0822.1,5.00,000.00,025.6,025.0,000.0,034.0,027.4,014.5,0000.0,0004.01,0014.67,0002.57
2024-05-01 15:58:00,SystemResetWarning,0822.1,5.01,000.00,025.6,025.0,000.0,034.0,027.4,014.7,0000.0,0004.03,0014.80,0002.57
2024-05-01 15:59:00,SystemResetWarning,0822.1,5.01,000.00,025.6,025.0,000.0,034.0,027.4,014.4,0000.0,0004.02,0014.97,0002.56
